PRC TEST SPACECRAFT 4

导读

PRC TEST SPACECRAFT 4是中国于2026年2月7日成功发射的可重复使用试验航天器,这是我国第四次开展该类型航天器试验。该航天器采用长征二号F运载火箭发射,为垂直发射、水平着陆模式,主要用于验证可重复使用、长期在轨等关键技术,可拓展空间对抗、在轨服务等多元应用,将推动我国天地往返运输技术发展,助力和平利用太空。

基本信息
目录编号:
67689
目录名称:
PRC TEST SPACECRAFT 4
国际标识:
2026-024A
轨道中心:
EARTH
卫星名称:
PRC TEST SPACECRAFT 4
卫星全名:
PRC TEST SPACECRAFT 4
卫星状态:
在轨 (已飞行210 天)
发射日期:
2026-02-07 UTC
国别 :
中国 (CN)
星等 :
--
轨道信息
数据来源 国际轨道数据 AOE轨道数据
星历时间 2026-09-05T14:41:21+0800
8小时前
查看轨道信息
2026-09-01T00:00:00+0800
4天前
查看轨道信息
半长轴 6969.866km 6969.388km
偏心率 0.0005465 0.000626
轨道倾角 49.992° 49.994°
近地点辐角 345.291° 326.250°
升交点赤经 259.728° 281.383°
平近点角 14.787° 85.520°
近地点 587.919km 586.888km
远地点 595.539km 595.614km
周期 96.515分钟 96.505分钟
每日圈数 14.91991 14.921444
详细信息
使用方式:
暂无
2D轨道图
3D轨道图
轨道高度分析图
轨道倾角分析图
轨道综合分析图
查看轨道综合分析图